Time,TemperatureF,DewpointF,PressureIn,WindDirection,WindDirectionDegrees,WindSpeedMPH,WindSpeedGustMPH,Humidity,HourlyPrecipIn,Conditions,Clouds,dailyrainin,SoftwareType,DateUTC
2013-01-27 00:03:00,17.0,13.0,30.44,WSW,250,0.0,-999.0,85,-99.99,,,-99.99,,2013-01-27 05:03:00,
2013-01-27 00:12:00,17.0,13.0,30.44,WSW,250,0.0,-999.0,85,-99.99,,,-99.99,,2013-01-27 05:12:00,
2013-01-27 00:22:00,16.0,12.0,30.44,WSW,250,0.0,-999.0,85,-99.99,,,-99.99,,2013-01-27 05:22:00,
2013-01-27 00:32:00,16.0,13.0,30.44,WSW,250,0.0,-999.0,86,-99.99,,,-99.99,,2013-01-27 05:32:00,
2013-01-27 00:41:00,16.0,13.0,30.44,WSW,250,0.0,-999.0,86,-99.99,,,-99.99,,2013-01-27 05:41:00,
2013-01-27 00:52:00,16.0,13.0,30.43,WSW,250,0.0,-999.0,87,-99.99,,,-99.99,,2013-01-27 05:52:00,
2013-01-27 01:02:00,15.0,12.0,30.43,WSW,250,0.0,-999.0,87,-99.99,,,-99.99,,2013-01-27 06:02:00,
2013-01-27 01:11:00,15.0,12.0,30.43,WSW,250,0.0,-999.0,87,-99.99,,,-99.99,,2013-01-27 06:11:00,
2013-01-27 01:21:00,15.0,12.0,30.44,WSW,250,0.0,-999.0,88,-99.99,,,-99.99,,2013-01-27 06:21:00,
2013-01-27 01:32:00,15.0,12.0,30.45,WSW,250,0.0,-999.0,88,-99.99,,,-99.99,,2013-01-27 06:32:00,
2013-01-27 01:42:00,15.0,12.0,30.45,WSW,250,0.0,-999.0,88,-99.99,,,-99.99,,2013-01-27 06:42:00,
2013-01-27 01:52:00,15.0,12.0,30.45,WSW,250,0.0,-999.0,89,-99.99,,,-99.99,,2013-01-27 06:52:00,
2013-01-27 02:01:00,15.0,12.0,30.45,WSW,250,0.0,-999.0,89,-99.99,,,-99.99,,2013-01-27 07:01:00,
2013-01-27 02:14:00,15.0,12.0,30.45,WSW,250,0.0,-999.0,89,-99.99,,,-99.99,,2013-01-27 07:14:00,
2013-01-27 02:21:00,15.0,13.0,30.46,WSW,250,0.0,-999.0,90,-99.99,,,-99.99,,2013-01-27 07:21:00,
2013-01-27 02:32:00,15.0,13.0,30.46,WSW,250,0.0,-999.0,90,-99.99,,,-99.99,,2013-01-27 07:32:00,
2013-01-27 02:42:00,15.0,13.0,30.46,WSW,250,0.0,-999.0,90,-99.99,,,-99.99,,2013-01-27 07:42:00,
2013-01-27 02:52:00,15.0,13.0,30.46,WSW,250,0.0,-999.0,90,-99.99,,,-99.99,,2013-01-27 07:52:00,
2013-01-27 03:01:00,16.0,14.0,30.47,WSW,250,0.0,-999.0,90,-99.99,,,-99.99,,2013-01-27 08:01:00,
2013-01-27 03:11:00,16.0,14.0,30.47,WSW,250,0.0,-999.0,90,-99.99,,,-99.99,,2013-01-27 08:11:00,
2013-01-27 03:22:00,16.0,14.0,30.47,WSW,250,0.0,-999.0,90,-99.99,,,-99.99,,2013-01-27 08:22:00,
2013-01-27 03:32:00,16.0,14.0,30.47,WSW,250,0.0,-999.0,90,-99.99,,,-99.99,,2013-01-27 08:32:00,
2013-01-27 03:42:00,16.0,14.0,30.47,WSW,250,0.0,-999.0,90,-99.99,,,-99.99,,2013-01-27 08:42:00,
2013-01-27 03:52:00,16.0,13.0,30.48,WSW,250,0.0,-999.0,89,-99.99,,,-99.99,,2013-01-27 08:52:00,
2013-01-27 04:02:00,15.0,12.0,30.47,WSW,250,0.0,-999.0,89,-99.99,,,-99.99,,2013-01-27 09:02:00,
2013-01-27 04:11:00,15.0,12.0,30.47,WSW,250,0.0,-999.0,89,-99.99,,,-99.99,,2013-01-27 09:11:00,
2013-01-27 04:21:00,15.0,12.0,30.47,WSW,250,0.0,-999.0,89,-99.99,,,-99.99,,2013-01-27 09:21:00,
2013-01-27 04:32:00,14.0,11.0,30.46,WSW,250,0.0,-999.0,88,-99.99,,,-99.99,,2013-01-27 09:32:00,
2013-01-27 04:42:00,14.0,11.0,30.46,WSW,250,0.0,-999.0,88,-99.99,,,-99.99,,2013-01-27 09:42:00,
2013-01-27 04:52:00,14.0,11.0,30.47,WSW,250,0.0,-999.0,88,-99.99,,,-99.99,,2013-01-27 09:52:00,
2013-01-27 05:01:00,13.0,10.0,30.47,WSW,250,0.0,-999.0,89,-99.99,,,-99.99,,2013-01-27 10:01:00,
2013-01-27 05:11:00,13.0,10.0,30.47,WSW,250,0.0,-999.0,89,-99.99,,,-99.99,,2013-01-27 10:11:00,
2013-01-27 05:21:00,13.0,10.0,30.47,WSW,250,0.0,-999.0,89,-99.99,,,-99.99,,2013-01-27 10:21:00,
2013-01-27 05:32:00,12.0,9.0,30.46,WSW,250,0.0,-999.0,89,-99.99,,,-99.99,,2013-01-27 10:32:00,
2013-01-27 05:42:00,12.0,9.0,30.46,WSW,250,0.0,-999.0,89,-99.99,,,-99.99,,2013-01-27 10:42:00,
2013-01-27 05:52:00,12.0,10.0,30.47,WSW,250,0.0,-999.0,90,-99.99,,,-99.99,,2013-01-27 10:52:00,
2013-01-27 06:01:00,12.0,12.0,30.47,WSW,250,0.0,-999.0,100,-99.99,,,-99.99,,2013-01-27 11:01:00,
2013-01-27 06:11:00,12.0,12.0,30.47,WSW,250,0.0,-999.0,100,-99.99,,,-99.99,,2013-01-27 11:11:00,
2013-01-27 06:21:00,11.0,9.0,30.49,WSW,250,0.0,-999.0,90,-99.99,,,-99.99,,2013-01-27 11:21:00,
2013-01-27 06:32:00,12.0,10.0,30.50,WSW,250,0.0,-999.0,91,-99.99,,,-99.99,,2013-01-27 11:32:00,
2013-01-27 06:42:00,12.0,10.0,30.50,WSW,250,0.0,-999.0,91,-99.99,,,-99.99,,2013-01-27 11:42:00,
2013-01-27 06:52:00,11.0,9.0,30.50,WSW,250,0.0,-999.0,90,-99.99,,,-99.99,,2013-01-27 11:52:00,
2013-01-27 07:02:00,11.0,9.0,30.50,WSW,250,0.0,-999.0,90,-99.99,,,-99.99,,2013-01-27 12:02:00,
2013-01-27 07:12:00,11.0,9.0,30.50,WSW,250,0.0,-999.0,90,-99.99,,,-99.99,,2013-01-27 12:12:00,
2013-01-27 07:22:00,10.0,8.0,30.51,WSW,250,0.0,-999.0,90,-99.99,,,-99.99,,2013-01-27 12:22:00,
2013-01-27 07:32:00,10.0,8.0,30.51,WSW,250,0.0,-999.0,90,-99.99,,,-99.99,,2013-01-27 12:32:00,
2013-01-27 07:42:00,10.0,8.0,30.51,WSW,250,0.0,-999.0,90,-99.99,,,-99.99,,2013-01-27 12:42:00,
2013-01-27 07:52:00,10.0,8.0,30.52,WSW,250,0.0,-999.0,90,-99.99,,,-99.99,,2013-01-27 12:52:00,
2013-01-27 08:02:00,10.0,8.0,30.52,WSW,250,0.0,-999.0,91,-99.99,,,-99.99,,2013-01-27 13:02:00,
2013-01-27 08:11:00,10.0,8.0,30.52,WSW,250,0.0,-999.0,91,-99.99,,,-99.99,,2013-01-27 13:11:00,
2013-01-27 08:22:00,10.0,8.0,30.53,WSW,250,0.0,-999.0,91,-99.99,,,-99.99,,2013-01-27 13:22:00,
2013-01-27 08:32:00,9.0,7.0,30.53,WSW,250,0.0,-999.0,91,-99.99,,,-99.99,,2013-01-27 13:32:00,
2013-01-27 08:42:00,9.0,7.0,30.53,WSW,250,0.0,-999.0,91,-99.99,,,-99.99,,2013-01-27 13:42:00,
2013-01-27 08:52:00,11.0,9.0,30.53,SSW,208,0.0,-999.0,92,-99.99,,,-99.99,,2013-01-27 13:52:00,
2013-01-27 09:02:00,13.0,11.0,30.53,SE,135,1.0,-999.0,93,-99.99,,,-99.99,,2013-01-27 14:02:00,
2013-01-27 09:12:00,13.0,11.0,30.53,SE,135,1.0,-999.0,93,-99.99,,,-99.99,,2013-01-27 14:12:00,
2013-01-27 09:22:00,13.0,11.0,30.53,SE,135,1.0,-999.0,93,-99.99,,,-99.99,,2013-01-27 14:22:00,
2013-01-27 09:33:00,15.0,13.0,30.53,SE,137,0.0,-999.0,93,-99.99,,,-99.99,,2013-01-27 14:33:00,
2013-01-27 09:43:00,15.0,13.0,30.53,SE,137,0.0,-999.0,93,-99.99,,,-99.99,,2013-01-27 14:43:00,
2013-01-27 09:52:00,16.0,14.0,30.53,SE,136,0.0,-999.0,92,-99.99,,,-99.99,,2013-01-27 14:52:00,
2013-01-27 10:02:00,16.0,14.0,30.53,SE,136,0.0,-999.0,92,-99.99,,,-99.99,,2013-01-27 15:02:00,
2013-01-27 10:12:00,16.0,14.0,30.53,SE,136,0.0,-999.0,92,-99.99,,,-99.99,,2013-01-27 15:12:00,
2013-01-27 10:22:00,17.0,15.0,30.54,East,84,1.0,-999.0,91,-99.99,,,-99.99,,2013-01-27 15:22:00,
2013-01-27 10:32:00,17.0,15.0,30.54,East,84,1.0,-999.0,91,-99.99,,,-99.99,,2013-01-27 15:32:00,
2013-01-27 10:42:00,17.0,15.0,30.54,East,84,1.0,-999.0,91,-99.99,,,-99.99,,2013-01-27 15:42:00,
2013-01-27 10:52:00,19.0,16.0,30.54,East,96,1.0,-999.0,89,-99.99,,,-99.99,,2013-01-27 15:52:00,
2013-01-27 11:03:00,21.0,17.0,30.54,ESE,109,2.0,-999.0,86,-99.99,,,-99.99,,2013-01-27 16:03:00,
2013-01-27 11:12:00,21.0,17.0,30.54,ESE,109,2.0,-999.0,86,-99.99,,,-99.99,,2013-01-27 16:12:00,
2013-01-27 11:22:00,22.0,18.0,30.54,SE,138,1.0,-999.0,83,-99.99,,,-99.99,,2013-01-27 16:22:00,
2013-01-27 11:32:00,23.0,18.0,30.54,SE,144,3.0,-999.0,80,-99.99,,,-99.99,,2013-01-27 16:32:00,
2013-01-27 11:42:00,23.0,18.0,30.54,SE,144,3.0,-999.0,80,-99.99,,,-99.99,,2013-01-27 16:42:00,
2013-01-27 11:52:00,24.0,18.0,30.52,SE,134,3.0,-999.0,77,-99.99,,,-99.99,,2013-01-27 16:52:00,
2013-01-27 12:02:00,24.0,18.0,30.51,East,81,2.0,-999.0,78,-99.99,,,-99.99,,2013-01-27 17:02:00,
2013-01-27 12:12:00,24.0,18.0,30.51,East,81,2.0,-999.0,78,-99.99,,,-99.99,,2013-01-27 17:12:00,
2013-01-27 12:22:00,25.0,19.0,30.51,SE,140,2.0,-999.0,76,-99.99,,,-99.99,,2013-01-27 17:22:00,
2013-01-27 12:32:00,25.0,18.0,30.50,ENE,74,2.0,-999.0,75,-99.99,,,-99.99,,2013-01-27 17:32:00,
2013-01-27 12:42:00,25.0,18.0,30.50,ENE,74,2.0,-999.0,75,-99.99,,,-99.99,,2013-01-27 17:42:00,
2013-01-27 12:52:00,26.0,18.0,30.50,SE,139,1.0,-999.0,72,-99.99,,,-99.99,,2013-01-27 17:52:00,
2013-01-27 13:03:00,27.0,20.0,30.48,NE,50,1.0,-999.0,73,-99.99,,,-99.99,,2013-01-27 18:03:00,
2013-01-27 13:12:00,27.0,20.0,30.48,NE,50,1.0,-999.0,73,-99.99,,,-99.99,,2013-01-27 18:12:00,
2013-01-27 13:23:00,27.0,19.0,30.48,ENE,63,2.0,-999.0,71,-99.99,,,-99.99,,2013-01-27 18:23:00,
2013-01-27 13:32:00,28.0,19.0,30.48,SSE,155,2.0,-999.0,68,-99.99,,,-99.99,,2013-01-27 18:32:00,
2013-01-27 13:42:00,28.0,19.0,30.48,SSE,155,2.0,-999.0,68,-99.99,,,-99.99,,2013-01-27 18:42:00,
2013-01-27 13:52:00,29.0,19.0,30.47,ESE,111,1.0,-999.0,67,-99.99,,,-99.99,,2013-01-27 18:52:00,
2013-01-27 14:02:00,29.0,19.0,30.47,SE,137,1.0,-999.0,67,-99.99,,,-99.99,,2013-01-27 19:02:00,
2013-01-27 14:12:00,29.0,19.0,30.47,SE,137,1.0,-999.0,67,-99.99,,,-99.99,,2013-01-27 19:12:00,
2013-01-27 14:22:00,28.0,18.0,30.47,East,95,2.0,-999.0,67,-99.99,,,-99.99,,2013-01-27 19:22:00,
2013-01-27 14:32:00,28.0,19.0,30.45,ENE,77,1.0,-999.0,68,-99.99,,,-99.99,,2013-01-27 19:32:00,
2013-01-27 14:42:00,28.0,19.0,30.45,ENE,77,1.0,-999.0,68,-99.99,,,-99.99,,2013-01-27 19:42:00,
2013-01-27 14:52:00,29.0,19.0,30.46,ESE,109,3.0,-999.0,65,-99.99,,,-99.99,,2013-01-27 19:52:00,
2013-01-27 15:03:00,29.0,19.0,30.45,ENE,58,2.0,-999.0,65,-99.99,,,-99.99,,2013-01-27 20:03:00,
2013-01-27 15:12:00,29.0,19.0,30.45,ENE,58,2.0,-999.0,65,-99.99,,,-99.99,,2013-01-27 20:12:00,
2013-01-27 15:22:00,29.0,18.0,30.45,SE,124,3.0,-999.0,63,-99.99,,,-99.99,,2013-01-27 20:22:00,
2013-01-27 15:33:00,29.0,18.0,30.45,SSE,161,1.0,-999.0,62,-99.99,,,-99.99,,2013-01-27 20:33:00,
2013-01-27 15:42:00,29.0,18.0,30.45,SSE,161,1.0,-999.0,62,-99.99,,,-99.99,,2013-01-27 20:42:00,
2013-01-27 15:52:00,30.0,18.0,30.44,ESE,108,2.0,-999.0,61,-99.99,,,-99.99,,2013-01-27 20:52:00,
2013-01-27 16:02:00,30.0,19.0,30.44,ENE,64,2.0,-999.0,62,-99.99,,,-99.99,,2013-01-27 21:02:00,
2013-01-27 16:12:00,30.0,19.0,30.44,ENE,64,2.0,-999.0,62,-99.99,,,-99.99,,2013-01-27 21:12:00,
2013-01-27 16:22:00,29.0,18.0,30.43,ENE,63,1.0,-999.0,64,-99.99,,,-99.99,,2013-01-27 21:22:00,
2013-01-27 16:33:00,28.0,18.0,30.43,ENE,65,0.0,-999.0,66,-99.99,,,-99.99,,2013-01-27 21:33:00,
2013-01-27 16:42:00,28.0,18.0,30.43,ENE,65,0.0,-999.0,66,-99.99,,,-99.99,,2013-01-27 21:42:00,
2013-01-27 16:52:00,28.0,17.0,30.41,ENE,69,1.0,-999.0,64,-99.99,,,-99.99,,2013-01-27 21:52:00,
2013-01-27 17:03:00,28.0,17.0,30.41,ESE,108,2.0,-999.0,64,-99.99,,,-99.99,,2013-01-27 22:03:00,
2013-01-27 17:12:00,28.0,17.0,30.41,ESE,108,2.0,-999.0,64,-99.99,,,-99.99,,2013-01-27 22:12:00,
2013-01-27 17:22:00,28.0,18.0,30.42,East,79,0.0,-999.0,65,-99.99,,,-99.99,,2013-01-27 22:22:00,
2013-01-27 17:32:00,28.0,17.0,30.42,East,98,1.0,-999.0,64,-99.99,,,-99.99,,2013-01-27 22:32:00,
2013-01-27 17:42:00,28.0,17.0,30.42,East,98,1.0,-999.0,64,-99.99,,,-99.99,,2013-01-27 22:42:00,
2013-01-27 17:52:00,28.0,18.0,30.42,ESE,113,0.0,-999.0,66,-99.99,,,-99.99,,2013-01-27 22:52:00,
2013-01-27 18:02:00,28.0,18.0,30.42,East,82,0.0,-999.0,66,-99.99,,,-99.99,,2013-01-27 23:02:00,
2013-01-27 18:12:00,28.0,18.0,30.42,East,82,0.0,-999.0,66,-99.99,,,-99.99,,2013-01-27 23:12:00,
2013-01-27 18:22:00,28.0,18.0,30.41,East,80,0.0,-999.0,66,-99.99,,,-99.99,,2013-01-27 23:22:00,
2013-01-27 18:32:00,27.0,18.0,30.41,East,80,0.0,-999.0,67,-99.99,,,-99.99,,2013-01-27 23:32:00,
2013-01-27 18:42:00,27.0,18.0,30.41,East,80,0.0,-999.0,67,-99.99,,,-99.99,,2013-01-27 23:42:00,
2013-01-27 18:52:00,27.0,18.0,30.39,East,81,0.0,-999.0,67,-99.99,,,-99.99,,2013-01-27 23:52:00,
2013-01-27 19:02:00,27.0,18.0,30.40,East,81,0.0,-999.0,68,-99.99,,,-99.99,,2013-01-28 00:02:00,
2013-01-27 19:12:00,27.0,18.0,30.40,East,81,0.0,-999.0,68,-99.99,,,-99.99,,2013-01-28 00:12:00,
2013-01-27 19:22:00,27.0,18.0,30.40,East,81,0.0,-999.0,68,-99.99,,,-99.99,,2013-01-28 00:22:00,
2013-01-27 19:33:00,27.0,18.0,30.40,East,81,0.0,-999.0,68,-99.99,,,-99.99,,2013-01-28 00:33:00,
2013-01-27 19:42:00,27.0,18.0,30.40,East,81,0.0,-999.0,68,-99.99,,,-99.99,,2013-01-28 00:42:00,
2013-01-27 19:51:00,27.0,18.0,30.39,East,81,0.0,-999.0,68,-99.99,,,-99.99,,2013-01-28 00:51:00,
2013-01-27 20:02:00,27.0,18.0,30.39,East,81,1.0,-999.0,68,-99.99,,,-99.99,,2013-01-28 01:02:00,
2013-01-27 20:12:00,27.0,18.0,30.39,East,81,1.0,-999.0,68,-99.99,,,-99.99,,2013-01-28 01:12:00,
2013-01-27 20:22:00,27.0,18.0,30.40,East,80,0.0,-999.0,69,-99.99,,,-99.99,,2013-01-28 01:22:00,
2013-01-27 20:33:00,27.0,18.0,30.40,East,80,0.0,-999.0,69,-99.99,,,-99.99,,2013-01-28 01:33:00,
2013-01-27 20:42:00,27.0,18.0,30.40,East,80,0.0,-999.0,69,-99.99,,,-99.99,,2013-01-28 01:42:00,
2013-01-27 20:52:00,27.0,19.0,30.38,East,80,0.0,-999.0,71,-99.99,,,-99.99,,2013-01-28 01:52:00,
2013-01-27 21:02:00,27.0,19.0,30.39,East,80,0.0,-999.0,70,-99.99,,,-99.99,,2013-01-28 02:02:00,
2013-01-27 21:11:00,27.0,19.0,30.39,East,80,0.0,-999.0,70,-99.99,,,-99.99,,2013-01-28 02:11:00,
2013-01-27 21:22:00,27.0,19.0,30.38,East,80,0.0,-999.0,70,-99.99,,,-99.99,,2013-01-28 02:22:00,
2013-01-27 21:32:00,27.0,19.0,30.39,East,80,0.0,-999.0,70,-99.99,,,-99.99,,2013-01-28 02:32:00,
2013-01-27 21:42:00,27.0,19.0,30.39,East,80,0.0,-999.0,70,-99.99,,,-99.99,,2013-01-28 02:42:00,
2013-01-27 21:52:00,28.0,20.0,30.38,East,80,0.0,-999.0,70,-99.99,,,-99.99,,2013-01-28 02:52:00,
2013-01-27 22:02:00,28.0,20.0,30.37,East,79,0.0,-999.0,70,-99.99,,,-99.99,,2013-01-28 03:02:00,
2013-01-27 22:12:00,28.0,20.0,30.37,East,79,0.0,-999.0,70,-99.99,,,-99.99,,2013-01-28 03:12:00,
2013-01-27 22:22:00,28.0,20.0,30.36,East,79,0.0,-999.0,70,-99.99,,,-99.99,,2013-01-28 03:22:00,
2013-01-27 22:32:00,28.0,20.0,30.36,East,80,0.0,-999.0,70,-99.99,,,-99.99,,2013-01-28 03:32:00,
2013-01-27 22:42:00,28.0,20.0,30.36,East,80,0.0,-999.0,70,-99.99,,,-99.99,,2013-01-28 03:42:00,
2013-01-27 22:52:00,28.0,20.0,30.36,East,80,0.0,-999.0,70,-99.99,,,-99.99,,2013-01-28 03:52:00,
2013-01-27 23:02:00,28.0,20.0,30.36,East,80,0.0,-999.0,71,-99.99,,,-99.99,,2013-01-28 04:02:00,
2013-01-27 23:12:00,28.0,20.0,30.36,East,80,0.0,-999.0,71,-99.99,,,-99.99,,2013-01-28 04:12:00,
2013-01-27 23:22:00,28.0,20.0,30.35,ENE,76,0.0,-999.0,73,-99.99,,,-99.99,,2013-01-28 04:22:00,
2013-01-27 23:32:00,28.0,21.0,30.35,ENE,76,0.0,-999.0,75,-99.99,,,-99.99,,2013-01-28 04:32:00,
2013-01-27 23:42:00,28.0,21.0,30.35,ENE,76,0.0,-999.0,75,-99.99,,,-99.99,,2013-01-28 04:42:00,
2013-01-27 23:52:00,28.0,21.0,30.34,ENE,73,1.0,-999.0,75,-99.99,,,-99.99,,2013-01-28 04:52:00,